| time (UTC) | temp C | wind direction | speed KPH | gust KPH | rain 1hr cm | rain 24hr cm | rain mn cm | humidity % | barometer mb |
| 20260507191553 | 15 | 236 | 3.2 | 12.9 | 0.00 | 0.08 | 0.05 | 36 | 1008.1 |
| 20260507190057 | 14 | 298 | 4.8 | 12.9 | 0.00 | 0.08 | 0.05 | 36 | 1008.3 |
| 20260507184549 | 14 | 309 | 3.2 | 11.3 | 0.00 | 0.10 | 0.05 | 38 | 1008.5 |
| 20260507183110 | 13 | 263 | 4.8 | 9.7 | 0.00 | 0.10 | 0.05 | 38 | 1008.7 |
| 20260507181551 | 13 | 289 | 1.6 | 9.7 | 0.00 | 0.10 | 0.05 | 41 | 1008.8 |
| 20260507180045 | 13 | 240 | 4.8 | 12.9 | 0.00 | 0.10 | 0.05 | 40 | 1008.9 |
| 20260507174550 | 12 | 310 | 4.8 | 8.0 | 0.00 | 0.25 | 0.05 | 43 | 1009.1 |
| 20260507173048 | 12 | 26 | 3.2 | 8.0 | 0.00 | 0.25 | 0.05 | 42 | 1009.3 |
| 20260507171542 | 13 | 321 | 3.2 | 12.9 | 0.00 | 0.25 | 0.05 | 44 | 1009.4 |
| 20260507170044 | 13 | 301 | 8.0 | 14.5 | 0.00 | 0.25 | 0.05 | 42 | 1009.5 |
| 20260507164555 | 12 | 319 | 4.8 | 9.7 | 0.00 | 0.36 | 0.05 | 42 | 1009.8 |
| 20260507163039 | 12 | 207 | 1.6 | 11.3 | 0.00 | 0.36 | 0.05 | 43 | 1009.9 |
| 20260507161550 | 12 | 18 | 3.2 | 14.5 | 0.00 | 0.36 | 0.05 | 42 | 1009.8 |
| 20260507160036 | 11 | 286 | 4.8 | 12.9 | 0.00 | 0.36 | 0.05 | 44 | 1010.2 |
| 20260507154636 | 11 | 304 | 3.2 | 12.9 | 0.00 | 0.66 | 0.05 | 45 | 1010.3 |
| 20260507153011 | 11 | 314 | 3.2 | 11.3 | 0.00 | 0.66 | 0.05 | 50 | 1010.6 |
| 20260507151508 | 10 | 184 | 4.8 | 11.3 | 0.00 | 0.66 | 0.05 | 48 | 1010.8 |
| 20260507150056 | 10 | 229 | 4.8 | 12.9 | 0.00 | 0.66 | 0.05 | 50 | 1010.9 |
| 20260507144553 | 10 | 284 | 4.8 | 11.3 | 0.00 | 0.84 | 0.05 | 52 | 1010.9 |
| 20260507143151 | 9 | 287 | 1.6 | 4.8 | 0.00 | 0.84 | 0.05 | 55 | 1011.0 |
| 20260507141549 | 8 | 301 | 3.2 | 8.0 | 0.00 | 0.84 | 0.05 | 55 | 1011.0 |
| 20260507140045 | 8 | 155 | 1.6 | 6.4 | 0.00 | 0.84 | 0.05 | 62 | 1011.1 |
| 20260507134542 | 7 | 294 | 3.2 | 11.3 | 0.00 | 1.04 | 0.05 | 62 | 1011.2 |
| 20260507133046 | 7 | 311 | 3.2 | 8.0 | 0.00 | 1.04 | 0.05 | 65 | 1011.3 |
| 20260507131540 | 7 | 335 | 1.6 | 4.8 | 0.00 | 1.04 | 0.05 | 67 | 1011.1 |
| 20260507130041 | 6 | 351 | 1.6 | 6.4 | 0.00 | 1.04 | 0.05 | 68 | 1011.0 |
| 20260507124539 | 6 | 324 | 0.0 | 6.4 | 0.00 | 1.12 | 0.05 | 73 | 1011.1 |
| 20260507123033 | 6 | 295 | 1.6 | 11.3 | 0.00 | 1.12 | 0.05 | 73 | 1010.8 |
| 20260507121531 | 5 | 12 | 0.0 | 8.0 | 0.00 | 1.12 | 0.05 | 77 | 1010.7 |
| 20260507120029 | 5 | 281 | 1.6 | 6.4 | 0.00 | 1.12 | 0.05 | 79 | 1010.6 |
| 20260507114544 | 5 | 304 | 3.2 | 6.4 | 0.00 | 1.14 | 0.05 | 80 | 1010.5 |
| 20260507113046 | 4 | 162 | 0.0 | 6.4 | 0.00 | 1.14 | 0.05 | 88 | 1010.4 |
| 20260507111532 | 4 | 221 | 0.0 | 6.4 | 0.00 | 1.14 | 0.05 | 89 | 1010.3 |
| 20260507110021 | 4 | 221 | 0.0 | 3.2 | 0.00 | 1.14 | 0.05 | 89 | 1010.2 |
| 20260507104519 | 4 | 221 | 1.6 | 4.8 | 0.00 | 1.14 | 0.05 | 89 | 1010.0 |
| 20260507103020 | 4 | 221 | 0.0 | 4.8 | 0.00 | 1.14 | 0.05 | 89 | 1009.6 |
| 20260507101517 | 5 | 221 | 0.0 | 3.2 | 0.00 | 1.14 | 0.05 | 88 | 1009.4 |
| 20260507100014 | 5 | 221 | 1.6 | 6.4 | 0.00 | 1.14 | 0.05 | 90 | 1009.3 |
| 20260507094511 | 5 | 292 | 0.0 | 4.8 | 0.00 | 1.14 | 0.05 | 90 | 1009.2 |
| 20260507093011 | 5 | 292 | 0.0 | 1.6 | 0.00 | 1.14 | 0.05 | 92 | 1009.0 |
| 20260507091509 | 5 | 292 | 0.0 | 0.0 | 0.00 | 1.14 | 0.05 | 91 | 1008.9 |
| 20260507090008 | 5 | 292 | 0.0 | 1.6 | 0.00 | 1.14 | 0.05 | 91 | 1009.0 |
| 20260507084508 | 5 | 292 | 0.0 | 0.0 | 0.00 | 1.14 | 0.05 | 90 | 1008.9 |
| 20260507083006 | 6 | 292 | 0.0 | 1.6 | 0.00 | 1.14 | 0.05 | 90 | 1008.9 |
| 20260507081507 | 6 | 292 | 1.6 | 3.2 | 0.00 | 1.14 | 0.05 | 89 | 1009.2 |
| 20260507080003 | 6 | 292 | 0.0 | 4.8 | 0.00 | 1.14 | 0.05 | 90 | 1009.3 |
| 20260507074500 | 6 | 292 | 3.2 | 4.8 | 0.00 | 1.14 | 0.05 | 90 | 1009.4 |
| 20260507073102 | 6 | 288 | 1.6 | 4.8 | 0.00 | 1.14 | 0.05 | 92 | 1009.4 |
| 20260507071557 | 6 | 288 | 0.0 | 0.0 | 0.00 | 1.14 | 0.05 | 93 | 1009.3 |
| 20260507070104 | 6 | 288 | 0.0 | 0.0 | 0.00 | 1.14 | 0.05 | 93 | 1009.5 |
| 20260507064555 | 6 | 288 | 0.0 | 1.6 | 0.03 | 1.14 | 0.05 | 93 | 1009.7 |
| 20260507063055 | 6 | 288 | 0.0 | 0.0 | 0.03 | 1.14 | 0.05 | 92 | 1009.3 |
| 20260507061554 | 6 | 288 | 0.0 | 3.2 | 0.03 | 1.14 | 0.05 | 92 | 1009.4 |
| 20260507060059 | 6 | 288 | 0.0 | 3.2 | 0.00 | 1.12 | 0.03 | 92 | 1009.3 |
| 20260507054554 | 6 | 288 | 0.0 | 1.6 | 0.00 | 1.12 | 0.03 | 92 | 1009.3 |
| 20260507053051 | 6 | 288 | 0.0 | 1.6 | 0.00 | 1.12 | 0.03 | 91 | 1009.1 |
| 20260507051549 | 6 | 288 | 0.0 | 3.2 | 0.03 | 1.12 | 0.03 | 91 | 1009.0 |
| 20260507050047 | 6 | 288 | 0.0 | 3.2 | 0.03 | 1.12 | 0.03 | 91 | 1008.7 |
| 20260507044557 | 7 | 288 | 1.6 | 3.2 | 0.03 | 1.12 | 0.03 | 90 | 1008.3 |
| 20260507043056 | 7 | 288 | 0.0 | 3.2 | 0.03 | 1.12 | 0.03 | 90 | 1008.4 |
| 20260507041540 | 7 | 288 | 0.0 | 3.2 | 0.00 | 1.09 | 0.00 | 89 | 1009.0 |
| 20260507040040 | 7 | 288 | 1.6 | 4.8 | 0.00 | 1.09 | 0.00 | 88 | 1009.0 |
| 20260507034538 | 7 | 288 | 1.6 | 3.2 | 0.00 | 1.09 | 1.09 | 89 | 1008.9 |
| 20260507033038 | 7 | 288 | 0.0 | 3.2 | 0.00 | 1.09 | 1.09 | 89 | 1008.7 |
| 20260507031534 | 7 | 288 | 0.0 | 6.4 | 0.00 | 1.09 | 1.09 | 88 | 1008.6 |
| 20260507030031 | 7 | 287 | 1.6 | 4.8 | 0.00 | 1.09 | 1.09 | 88 | 1008.3 |
| 20260507024531 | 7 | 287 | 1.6 | 4.8 | 0.00 | 1.09 | 1.09 | 88 | 1008.6 |
| 20260507023029 | 7 | 287 | 1.6 | 3.2 | 0.00 | 1.09 | 1.09 | 89 | 1008.8 |
| 20260507021529 | 7 | 287 | 0.0 | 6.4 | 0.00 | 1.09 | 1.09 | 89 | 1008.8 |
| 20260507020043 | 7 | 287 | 1.6 | 6.4 | 0.00 | 1.09 | 1.09 | 91 | 1009.1 |
| 20260507014524 | 8 | 287 | 1.6 | 4.8 | 0.00 | 1.09 | 1.09 | 92 | 1009.1 |
| 20260507013024 | 8 | 287 | 1.6 | 4.8 | 0.00 | 1.09 | 1.09 | 92 | 1008.9 |
| 20260507011534 | 8 | 265 | 1.6 | 9.7 | 0.00 | 1.09 | 1.09 | 91 | 1008.8 |
| 20260507010018 | 8 | 296 | 1.6 | 4.8 | 0.00 | 1.09 | 1.09 | 91 | 1008.5 |
| 20260507004514 | 8 | 296 | 0.0 | 3.2 | 0.00 | 1.09 | 1.09 | 91 | 1008.3 |
| 20260507003012 | 8 | 296 | 0.0 | 4.8 | 0.00 | 1.09 | 1.09 | 91 | 1008.1 |
| 20260507001531 | 8 | 296 | 0.0 | 4.8 | 0.00 | 1.09 | 1.09 | 90 | 1007.8 |
| 20260507000013 | 9 | 295 | 3.2 | 6.4 | 0.00 | 1.09 | 1.09 | 91 | 1007.3 |
| 20260506234503 | 10 | 298 | 3.2 | 6.4 | 0.00 | 1.09 | 1.09 | 91 | 1007.2 |
| 20260506233102 | 10 | 293 | 1.6 | 4.8 | 0.00 | 1.09 | 1.09 | 91 | 1007.0 |
| 20260506231607 | 10 | 292 | 1.6 | 6.4 | 0.03 | 1.09 | 1.09 | 91 | 1006.8 |
| 20260506230112 | 10 | 225 | 1.6 | 4.8 | 0.03 | 1.09 | 1.09 | 90 | 1006.4 |
| 20260506224554 | 11 | 294 | 1.6 | 6.4 | 0.03 | 1.09 | 1.09 | 88 | 1006.0 |
| 20260506223050 | 12 | 274 | 3.2 | 12.9 | 0.03 | 1.09 | 1.09 | 84 | 1005.9 |
| 20260506221603 | 15 | 229 | 1.6 | 6.4 | 0.00 | 1.07 | 1.07 | 90 | 1005.1 |
| 20260506220048 | 15 | 248 | 3.2 | 6.4 | 0.00 | 1.07 | 1.07 | 89 | 1004.7 |
| 20260506214551 | 15 | 233 | 3.2 | 8.0 | 0.00 | 1.07 | 1.07 | 90 | 1004.6 |
| 20260506213047 | 15 | 135 | 1.6 | 8.0 | 0.00 | 1.07 | 1.07 | 91 | 1004.5 |
| 20260506211546 | 15 | 217 | 1.6 | 6.4 | 0.00 | 1.07 | 1.07 | 92 | 1004.3 |
| 20260506210054 | 15 | 139 | 1.6 | 9.7 | 0.00 | 1.07 | 1.07 | 92 | 1004.2 |
| 20260506204547 | 15 | 196 | 1.6 | 8.0 | 0.00 | 1.07 | 1.07 | 93 | 1004.2 |
| 20260506203044 | 15 | 178 | 3.2 | 8.0 | 0.00 | 1.07 | 1.07 | 93 | 1004.0 |
| 20260506201542 | 15 | 244 | 4.8 | 14.5 | 0.00 | 1.07 | 1.07 | 92 | 1004.0 |
| 20260506200040 | 14 | 189 | 1.6 | 9.7 | 0.00 | 1.07 | 1.07 | 93 | 1004.2 |
| 20260506194540 | 14 | 176 | 1.6 | 8.0 | 0.00 | 1.07 | 1.07 | 93 | 1004.1 |
| 20260506193043 | 14 | 238 | 1.6 | 12.9 | 0.00 | 1.07 | 1.07 | 93 | 1004.3 |